TimeCST,TemperatureF,Dew PointF,Humidity,Sea Level PressureIn,VisibilityMPH,Wind Direction,Wind SpeedMPH,Gust SpeedMPH,PrecipitationIn,Events,Conditions,WindDirDegrees,DateUTC
12:15 AM,15.8,10.4,79,30.26,2.5,North,12.7,-,0.04,Snow,Light Snow,350,2014-01-02 06:15:00
12:35 AM,15.8,10.4,79,30.26,4.0,NNW,11.5,-,0.07,Snow,Light Snow,340,2014-01-02 06:35:00
12:55 AM,15.8,10.4,79,30.26,5.0,North,12.7,-,0.09,Rain,Freezing Rain,350,2014-01-02 06:55:00
1:15 AM,15.8,10.4,79,30.26,10.0,NNW,13.8,-,N/A,Rain,Freezing Rain,340,2014-01-02 07:15:00
1:35 AM,14.0,10.4,86,30.26,10.0,NNW,15.0,-,N/A,Rain,Freezing Rain,340,2014-01-02 07:35:00
1:55 AM,14.0,8.6,79,30.27,10.0,NNW,11.5,-,N/A,,Freezing Rain,330,2014-01-02 07:55:00
2:15 AM,14.0,8.6,79,30.28,10.0,NNW,12.7,-,N/A,,Mostly Cloudy,330,2014-01-02 08:15:00
2:35 AM,14.0,8.6,79,30.29,10.0,NNW,13.8,-,N/A,,Overcast,340,2014-01-02 08:35:00
2:55 AM,14.0,8.6,79,30.30,10.0,NW,11.5,-,N/A,Rain,Freezing Rain,320,2014-01-02 08:55:00
3:15 AM,12.2,8.6,85,30.31,10.0,NW,11.5,-,N/A,,Overcast,320,2014-01-02 09:15:00
3:35 AM,10.4,5.0,79,30.32,10.0,NW,10.4,-,N/A,,Scattered Clouds,320,2014-01-02 09:35:00
3:55 AM,10.4,5.0,79,30.32,10.0,NNW,12.7,-,N/A,,Clear,330,2014-01-02 09:55:00
4:15 AM,10.4,3.2,73,30.33,10.0,NW,9.2,-,N/A,,Clear,320,2014-01-02 10:15:00
4:35 AM,8.6,3.2,79,30.34,10.0,NNW,8.1,-,N/A,,Clear,330,2014-01-02 10:35:00
4:55 AM,8.6,3.2,79,30.34,10.0,NW,6.9,-,N/A,,Clear,320,2014-01-02 10:55:00
5:15 AM,6.8,3.2,85,30.34,10.0,NW,5.8,-,N/A,,Clear,320,2014-01-02 11:15:00
5:35 AM,6.8,1.4,79,30.35,10.0,NW,9.2,-,N/A,,Clear,320,2014-01-02 11:35:00
5:55 AM,6.8,1.4,79,30.37,10.0,NW,8.1,-,N/A,,Clear,320,2014-01-02 11:55:00
6:15 AM,6.8,1.4,79,30.37,10.0,NW,8.1,-,N/A,,Clear,320,2014-01-02 12:15:00
6:35 AM,5.0,1.4,85,30.37,10.0,NW,6.9,-,N/A,,Clear,320,2014-01-02 12:35:00
6:55 AM,5.0,1.4,85,30.37,10.0,NW,3.5,-,N/A,,Clear,310,2014-01-02 12:55:00
7:15 AM,5.0,-0.4,78,30.38,10.0,NW,5.8,-,N/A,,Clear,310,2014-01-02 13:15:00
7:35 AM,3.2,-0.4,85,30.37,10.0,Calm,Calm,-,N/A,,Clear,0,2014-01-02 13:35:00
7:55 AM,5.0,-0.4,78,30.39,10.0,WNW,3.5,-,N/A,,Clear,300,2014-01-02 13:55:00
8:15 AM,5.0,-0.4,78,30.39,9.0,WNW,3.5,-,N/A,,Clear,290,2014-01-02 14:15:00
8:35 AM,5.0,1.4,85,30.39,9.0,WNW,5.8,-,N/A,,Clear,300,2014-01-02 14:35:00
8:55 AM,6.8,1.4,79,30.41,10.0,WNW,8.1,-,N/A,,Clear,300,2014-01-02 14:55:00
9:15 AM,8.6,1.4,73,30.42,9.0,NW,6.9,-,N/A,,Clear,310,2014-01-02 15:15:00
9:35 AM,8.6,1.4,73,30.43,10.0,NW,10.4,-,N/A,,Clear,320,2014-01-02 15:35:00
9:55 AM,8.6,1.4,73,30.45,9.0,NNW,10.4,-,N/A,,Clear,330,2014-01-02 15:55:00
10:15 AM,10.4,1.4,67,30.45,9.0,NNW,9.2,-,N/A,,Clear,330,2014-01-02 16:15:00
10:35 AM,10.4,1.4,67,30.44,10.0,NNW,9.2,-,N/A,,Partly Cloudy,330,2014-01-02 16:35:00
10:55 AM,10.4,1.4,67,30.44,10.0,NNW,6.9,-,N/A,,Partly Cloudy,330,2014-01-02 16:55:00
11:15 AM,12.2,3.2,67,30.44,10.0,NW,6.9,-,N/A,,Mostly Cloudy,320,2014-01-02 17:15:00
11:35 AM,12.2,3.2,67,30.44,10.0,NW,8.1,-,N/A,,Scattered Clouds,320,2014-01-02 17:35:00
11:55 AM,14.0,1.4,57,30.44,10.0,NW,10.4,-,N/A,,Clear,310,2014-01-02 17:55:00
12:15 PM,14.0,1.4,57,30.43,10.0,NW,10.4,-,N/A,,Clear,320,2014-01-02 18:15:00
12:35 PM,15.8,1.4,53,30.42,10.0,NNW,10.4,-,N/A,,Clear,330,2014-01-02 18:35:00
12:55 PM,17.6,1.4,49,30.41,10.0,NNW,8.1,-,N/A,,Clear,330,2014-01-02 18:55:00
1:15 PM,17.6,1.4,49,30.41,10.0,NNW,9.2,-,N/A,,Clear,330,2014-01-02 19:15:00
1:35 PM,17.6,1.4,49,30.41,10.0,NNW,9.2,-,N/A,,Clear,330,2014-01-02 19:35:00
1:55 PM,19.4,1.4,46,30.41,10.0,NNW,10.4,-,N/A,,Clear,330,2014-01-02 19:55:00
2:15 PM,19.4,3.2,49,30.41,10.0,NNW,6.9,-,N/A,,Clear,340,2014-01-02 20:15:00
2:35 PM,19.4,3.2,49,30.41,10.0,NNW,8.1,-,N/A,,Clear,340,2014-01-02 20:35:00
2:55 PM,19.4,3.2,49,30.42,10.0,NW,6.9,-,N/A,,Clear,320,2014-01-02 20:55:00
3:15 PM,19.4,3.2,49,30.42,10.0,NNW,8.1,-,N/A,,Clear,340,2014-01-02 21:15:00
3:35 PM,19.4,5.0,54,30.43,10.0,NNW,8.1,-,N/A,,Clear,340,2014-01-02 21:35:00
3:55 PM,19.4,5.0,54,30.43,10.0,North,6.9,-,N/A,,Clear,350,2014-01-02 21:55:00
4:15 PM,19.4,5.0,54,30.44,10.0,North,6.9,-,N/A,,Clear,350,2014-01-02 22:15:00
4:35 PM,17.6,5.0,58,30.44,10.0,North,5.8,-,N/A,,Clear,350,2014-01-02 22:35:00
4:55 PM,17.6,5.0,58,30.44,10.0,North,5.8,-,N/A,,Clear,350,2014-01-02 22:55:00
5:15 PM,15.8,5.0,62,30.44,10.0,North,5.8,-,N/A,,Clear,350,2014-01-02 23:15:00
5:35 PM,14.0,3.2,62,30.45,10.0,NNE,5.8,-,N/A,,Clear,20,2014-01-02 23:35:00
5:55 PM,12.2,3.2,67,30.46,10.0,North,6.9,-,N/A,,Clear,10,2014-01-02 23:55:00
6:15 PM,12.2,3.2,67,30.45,10.0,NNE,8.1,-,N/A,,Clear,20,2014-01-03 00:15:00
6:35 PM,12.2,3.2,67,30.46,10.0,NNE,5.8,-,N/A,,Clear,20,2014-01-03 00:35:00
6:55 PM,10.4,1.4,67,30.47,10.0,Calm,Calm,-,N/A,,Clear,0,2014-01-03 00:55:00
7:15 PM,10.4,3.2,73,30.48,10.0,Calm,Calm,-,N/A,,Clear,0,2014-01-03 01:15:00
7:35 PM,12.2,3.2,67,30.47,10.0,Calm,Calm,-,N/A,,Clear,0,2014-01-03 01:35:00
7:55 PM,10.4,1.4,67,30.48,10.0,NNE,5.8,-,N/A,,Clear,30,2014-01-03 01:55:00
8:15 PM,10.4,1.4,67,30.48,10.0,North,3.5,-,N/A,,Clear,10,2014-01-03 02:15:00
8:35 PM,10.4,1.4,67,30.48,10.0,Calm,Calm,-,N/A,,Clear,0,2014-01-03 02:35:00
8:55 PM,10.4,1.4,67,30.49,10.0,Calm,Calm,-,N/A,,Clear,0,2014-01-03 02:55:00
9:15 PM,6.8,1.4,79,30.49,10.0,Calm,Calm,-,N/A,,Clear,0,2014-01-03 03:15:00
9:35 PM,6.8,1.4,79,30.49,10.0,Calm,Calm,-,N/A,,Clear,0,2014-01-03 03:35:00
9:55 PM,5.0,1.4,85,30.49,10.0,Calm,Calm,-,N/A,,Clear,0,2014-01-03 03:55:00
10:15 PM,5.0,-0.4,78,30.49,10.0,Calm,Calm,-,N/A,,Clear,0,2014-01-03 04:15:00
10:35 PM,5.0,-0.4,78,30.49,10.0,Calm,Calm,-,N/A,,Clear,0,2014-01-03 04:35:00
10:55 PM,3.2,-0.4,85,30.49,10.0,Calm,Calm,-,N/A,,Clear,0,2014-01-03 04:55:00
11:15 PM,6.8,1.4,79,30.49,10.0,Calm,Calm,-,N/A,,Clear,0,2014-01-03 05:15:00
11:35 PM,3.2,-2.2,78,30.48,10.0,Calm,Calm,-,N/A,,Clear,0,2014-01-03 05:35:00
11:55 PM,3.2,-2.2,78,30.47,10.0,Calm,Calm,-,N/A,,Clear,0,2014-01-03 05:55:00